Location: Bessat
(45.8735°N, 1.9924°E)
Time: 03:52:58
(UTC+00:00)

Cosmos 2242 Rocket - Pass Details

Date: 11 May 2021
Orbit: 619 x 650 km, 82.5° (Epoch: 14 June)

Event Time Altitude Azimuth Distance (km) Brightness Sun altitude
Exits shadow 23:09:01 49° 65° (ENE) 819 4.2 -25.4°
Drops below altitude 10° 23:12:47 10° 18° (NNE) 2,021 7.0 -25.5°
Sets 23:15:04 0° 14° (NNE) 2,938 8.1 -25.5°
